This demonstration page uses our WeatherBlox Daily Observations layout. Learn more.

Left ArrowRight Arrow

Hourly Observations for April 13, 2020

Temp ( °F °C ) Dew Point ( °F °C ) Humidity (%) Winds ( mph kmh ) Pressure ( in mb ) Visibility ( mi km ) Precip ( " mm )
12:52 am 00:52 Clear 29 -1.7 20 -6.7 69 69 NNW 20 31 30.07 1018 10 16 0.00 0.00
1:52 am 01:52 Clear 28 -2.2 18 -7.8 66 66 NNW 15 24 30.09 1019 10 16 0.00 0.00
2:52 am 02:52 Clear 27 -2.8 17 -8.3 66 66 NNW 15 24 30.11 1020 10 16 0.00 0.00
3:52 am 03:52 Clear 26 -3.3 16 -8.9 66 66 WNW 13 20 30.13 1020 10 16 0.00 0.00
4:52 am 04:52 Clear 24 -4.4 16 -8.9 71 71 WNW 16 26 30.15 1021 10 16 0.00 0.00
5:52 am 05:52 Clear 24 -4.4 15 -9.4 68 68 WNW 12 19 30.17 1022 10 16 0.00 0.00
6:52 am 06:52 Sunny 23 -5 15 -9.4 72 72 WNW 13 20 30.20 1023 10 16 0.00 0.00
7:52 am 07:52 Sunny 26 -3.3 17 -8.3 69 69 NW 12 19 30.22 1023 10 16 0.00 0.00
8:52 am 08:52 Sunny 29 -1.7 17 -8.3 61 61 W 10 17 30.22 1024 10 16 0.00 0.00
9:52 am 09:52 Sunny 32 0 19 -7.2 59 59 WNW 12 19 30.23 1024 10 16 0.00 0.00
10:52 am 10:52 Mostly Sunny 36 2.2 20 -6.7 52 52 NW 20 31 30.22 1023 10 16 0.00 0.00
11:52 am 11:52 Partly Cloudy 37 2.8 18 -7.8 46 46 WNW 18 30 30.23 1024 10 16 0.00 0.00
12:52 pm 12:52 Partly Cloudy 40 4.4 16 -8.9 38 38 WNW 21 33 30.22 1023 10 16 0.00 0.00
1:52 pm 13:52 Partly Cloudy 39 3.9 11 -11.7 31 31 WNW 15 24 30.22 1023 10 16 0.00 0.00
2:52 pm 14:52 Partly Cloudy 40 4.4 12 -11.1 32 32 WNW 22 35 30.23 1024 10 16 0.00 0.00
3:52 pm 15:52 Partly Cloudy 40 4.4 12 -11.1 32 32 WNW 24 39 30.22 1023 10 16 0.00 0.00
4:52 pm 16:52 Mostly Cloudy 40 4.4 10 -12.2 29 29 NW 22 35 30.22 1023 10 16 0.00 0.00
5:52 pm 17:52 Mostly Cloudy 40 4.4 10 -12.2 29 29 WNW 14 22 30.24 1024 10 16 0.00 0.00
6:52 pm 18:52 Partly Cloudy 37 2.8 10 -12.2 33 33 WNW 16 26 30.25 1024 10 16 0.00 0.00
7:52 pm 19:52 Mostly Sunny 34 1.1 11 -11.7 38 38 NW 12 19 30.26 1025 10 16 0.00 0.00
8:52 pm 20:52 Mostly Clear 29 -1.7 14 -10 54 54 NW 5 7 30.28 1026 10 16 0.00 0.00
9:52 pm 21:52 Mostly Clear 32 0 12 -11.1 43 43 W 3 6 30.31 1026 10 16 0.00 0.00
10:52 pm 22:52 Clear 31 -0.6 12 -11.1 45 45 WSW 5 7 30.31 1026 10 16 0.00 0.00
11:52 pm 23:52 Clear 29 -1.7 13 -10.6 51 51 W 6 9 30.32 1027 10 16 0.00 0.00

Powered by AerisWeather